Tracking 31027 objects as of 19-Jul-2025
HD Live streaming from Space Station
objects crossing your sky now

STARLINK-5266

Track STARLINK-5266 now!
10-day predictions
STARLINK-5266 is classified as:


NORAD ID: 55290
Int'l Code: 2023-010X
Perigee: 576.7 km
Apogee: 581.7 km
Inclination: 70.0 °
Period: 96.1 minutes
Semi major axis: 6950 km
RCS: Unknown
Launch date: January 19, 2023
Source: United States (US)
Launch site: AIR FORCE WESTERN TEST RANGE (AFWTR)
Your satellite tracking list
DEWASAT-2
Track 1 satellite(s)




NASA's NSSDC Master Catalog

Two Line Element Set (TLE):
1 55290U 23010X   25199.46470102 -.00000106  00000-0 -11145-5 0  9993
2 55290  69.9986 255.0543 0003588 268.4522  91.6225 14.98328325138188
Source of the keplerian elements: AFSPC